Flag for Australia Weather past 2 weeks in Sydney, New South Wales, Australia

Now
59 °F

Drizzle. Partly sunny.


Feels Like: 55 °F
Forecast: 58 / 62 °F
Wind: 23 mph from Southwest

Location: Sydney Airport

Current Time: Apr 20, 2015 at 5:49:20 AM

Latest Report: Apr 20, 2015 at 5:30 AM


Visibility: N/A

Pressure: 30.21 "Hg

Humidity: 88%

Dew point: 55 °F

Location of SydneyLocation

Historic Weather in Sydney — Graph

°F

Sydney temperature yesterday

Maximum temperature yesterday: 70 °F (at 10:00 AM)
Minimum temperature yesterday: 59 °F (at 10:30 PM)
Average temperature yesterday: 65 °F

Past Weeks' High & Low Weather Summary

 TemperatureHumidityPressure
High90 °F (Apr 16, 2:00 PM)94% (Apr 5, 5:30 AM)30.27 "Hg (Apr 5, 5:30 AM)
Low57 °F (Apr 20, 3:00 AM)22% (Apr 7, 3:30 PM)29.68 "Hg (Apr 5, 3:00 PM)
Average67 °F70%30.04 "Hg
* Reported Apr 5 4:00 AM — Apr 20 4:00 AM, Sydney, Weather by CustomWeather, © 2015

Note: Actual official high and low records may vary slightly from our data, if they occured in-between our weather recording intervals... More about our weather records

Advertising

Sydney weather history for previous 24 hours

 ConditionsComfort  
Time TempWeatherWind HumidityBarometerVisibility
4:00 AM
Mon, Apr 20
59 °FPassing clouds.24 mph82%30.21 "HgN/A
3:30 AM57 °FPartly cloudy.26 mph88%30.21 "HgN/A
3:00 AM57 °FPassing clouds.26 mph88%30.21 "HgN/A
2:30 AM59 °FPassing clouds.23 mph82%30.21 "HgN/A
2:00 AM59 °FPassing clouds.24 mph82%30.24 "HgN/A
1:30 AM59 °FPassing clouds.26 mph82%30.24 "HgN/A
1:00 AM59 °FPartly cloudy.25 mph82%30.24 "HgN/A
12:30 AM59 °FPartly cloudy.25 mph82%30.27 "HgN/A
12:00 AM59 °FPassing clouds.22 mph82%30.27 "HgN/A
11:30 PM
Sun, Apr 19
59 °FPassing clouds.24 mph82%30.27 "HgN/A
11:00 PM59 °FPartly cloudy.23 mph82%30.27 "HgN/A
10:30 PM59 °FPartly cloudy.24 mph77%30.27 "HgN/A
10:00 PM61 °FPartly cloudy.21 mph83%30.27 "HgN/A
9:30 PM61 °FPartly cloudy.29 mph83%30.24 "HgN/A
9:00 PM61 °FPartly cloudy.18 mph72%30.24 "HgN/A
8:30 PM61 °FPartly cloudy.23 mph72%30.24 "HgN/A
8:00 PM61 °FPartly cloudy.23 mph77%30.24 "HgN/A
7:30 PM61 °FPassing clouds.28 mph72%30.21 "HgN/A
7:00 PM61 °FPassing clouds.30 mph77%30.18 "HgN/A
6:30 PM61 °FPassing clouds.31 mph77%30.18 "HgN/A
6:00 PM63 °FPassing clouds.32 mph77%30.15 "HgN/A
5:30 PM64 °FPassing clouds.32 mph73%30.15 "HgN/A
5:00 PM64 °FPassing clouds.30 mph68%30.15 "HgN/A
4:30 PM66 °FPartly cloudy.30 mph68%30.12 "HgN/A
4:00 PM66 °FScattered showers. Broken clouds.29 mph68%30.12 "HgN/A
3:30 PM64 °FScattered showers. Broken clouds.28 mph78%30.12 "HgN/A
3:00 PM64 °FBroken clouds.26 mph83%30.09 "HgN/A
2:30 PM64 °FBroken clouds.25 mph78%30.09 "HgN/A
2:00 PM66 °FBroken clouds.25 mph78%30.09 "HgN/A
1:30 PM66 °FBroken clouds.26 mph78%30.09 "HgN/A
1:00 PM66 °FBroken clouds.23 mph78%30.09 "HgN/A
12:30 PM68 °FPartly sunny.24 mph73%30.09 "HgN/A
12:00 PM66 °FScattered clouds.24 mph78%30.07 "HgN/A
11:30 AM68 °FBroken clouds.18 mph69%30.07 "HgN/A
11:00 AM70 °FBroken clouds.15 mph64%30.09 "HgN/A
10:30 AM70 °FScattered clouds.12 mph57%30.07 "HgN/A
10:00 AM70 °FPartly sunny.15 mph50%30.07 "HgN/A
9:00 AM66 °FPartly sunny.16 mph49%30.07 "HgN/A
8:30 AM66 °FPassing clouds.17 mph52%30.04 "HgN/A
8:00 AM66 °FScattered clouds.14 mph78%30.04 "HgN/A
7:30 AM64 °FPartly sunny.8 mph94%30.04 "HgN/A
7:00 AM64 °FScattered clouds.8 mph94%30.01 "HgN/A
6:30 AM66 °FSunny.7 mph88%29.98 "Hg10 mi
6:00 AM64 °FSunny.6 mph94%29.98 "Hg10 mi
5:30 AM64 °FScattered clouds.7 mph94%29.95 "HgN/A
5:00 AM66 °FPartly cloudy.7 mph88%29.95 "HgN/A
Weather by CustomWeather, © 2015

See weather overviewHow to use our weather pages